USA 40 R/B DEB, 23372

Orbit data source: Space-Track

USA 40 R/B DEB, 23372 is space debris originally from a launch on Tue, 08 Aug 1989 UTC launched from the Air Force Eastern Test Range (AFETR). Debris objects in space refer to the collection of defunct objects orbiting the Earth. Examples of debris include non-operational satellites, rocket bodies, and fragments generated from explosions, collisions, or faulty payload assembly.

Loading next visibility...
Identifier
23372, 1989-061AU
Orbit
Active
Country
Flag of USUS
Related business
Manufacturer
Unknown
Mission
Spacecraft
Bus & Motor
Unknown
Mass
Unknown
Launch date (UTC)
1989-08-08 (37 years ago)
Launch vehicle
Unknown
Launch site
Air Force Eastern Test Range (AFETR)
Object type
Payload
Rocket body
Debris
Shape & HBR
Unknown shape, 0.1 m
Radar Cross Section
Small (<0.1 m²)

Expand to show TLE details & history
Last TLE update: 14 hours ago

TLE from 14 hours ago
0 USA 40 R/B DEB
1 23372U 89061AU  26094.04873555  .00021162  00000-0  12716-1 0  9999
2 23372  57.0426   3.8687 2711412 128.0364 259.7736  9.46693415236363
Epoch: 2026-04-04T01:10Z
TLE epoch observation values (Epoch: 2026-04-04T01:10:10.751Z)
Latitude
-0°
Longitude
153.9498°
Altitude
4,118.633 km
Speed
5.808 km/s
True Right ascension
00h 15m 28s
True Declination
0° 00' 00"
Sunlit
Object was in daylight at epoch
Visualization orbit readout
Latitude
Unknown
Longitude
Unknown
Altitude
Unknown
Speed
Unknown
Apparent Right ascension
Unknown
Apparent Declination
Unknown
Sunlit
N/A
Visualization observer readout
Local Sidereal Time
21:00:15
Azimuth
Unknown
Elevation
Unknown
Doppler factor
Unknown
Orbital elements
Apogee altitude
5,619.881 km
Perigee altitude
501.398 km
Semi-major axis
9,438.777 km
Eccentricity
0.27114
Inclination
57.0426°
RAAN
3.8687°
Arg. of periapsis
128.0364°
True anomaly
232.04474°
Mean anomaly
259.7736°
Eccentric anomaly
245.6233°
Mean motion
2.36684 °/min
Orbital period
152.1 mins
BSTAR
0.012716
Loading maneuver chart data...
Computing Atmospheric mass density...
Loading historical data...
Loading historical data...
Loading historical data...
Loading historical data...
Loading historical data...
Loading historical data...
Loading historical data...

Documentation

Showing up to 5 results
|